[[{"header":{"parameterUnit":"m.s-1","parameterCategory":1,"la1":30.2991,"la2":30.254,"lo1":-89.0895,"lo2":-89.0444,"dy":0.0017,"dx":0.0017,"nx":28,"ny":28,"refTime":"2025-03-21T09:00:00:Z","depth":0,"parameterNumber":2,"parameterNumberName":"U-component_of_WINDS"},"data":[0,0,0,0,0,0,0,0,0,0,0,0,0,0,0,0,0,0,0,0,0,0,0,0,0,0,0,0,0,0,0,0,0,0,0,0,0,0,0,0,0,0,0,0,0,0,0,0,0,0,0,0,0,0,0,0,0,0,0.9,0.9002,0,0.92,0.9203,0.9205,0.9296,0.9296,0.9296,0.9296,0.9503,0.9508,0.9514,0,0,0,0,0,0,0,0,0,0,0,0,0,0.8697,0.8702,0.9,0.9002,0.9005,0.92,0.9203,0.9206,0.9296,0.9296,0.9296,0.9296,0.9501,0.9508,0.9514,0,0,0,0,0,0,0,0,0,0,0,0,0,0.8856,0.8704,0.9,0.9074,0.9082,0.9199,0.9203,0.9206,0.9296,0.9296,0.9296,0.9296,0.9499,0.9507,0.9515,0.9574,0,0,0.9541,0.9545,0,0,0,0,0,0,0,0,0.8847,0.8867,0.906,0.9069,0.9079,0.9223,0.9172,0.933,0.9297,0.9215,0.9296,0.9295,0.941,0.9426,0.9464,0.9584,0.9593,0.9542,0.9547,0.9551,0.9554,0,0,0,0,0,0,0,0.8836,0.8859,0.9079,0.9063,0.9074,0.9097,0.912,0.9202,0.9312,0.9222,0.9229,0.9252,0.9415,0.9456,0.947,0.9596,0.9542,0.955,0.9555,0.9558,0.9773,0.9774,0,0,0,0,0,0,0.8812,0.8849,0.9073,0.9085,0.896,0.9103,0.9128,0.9177,0.9311,0.9331,0.9252,0.9255,0.9441,0.946,0.9477,0.9555,0.9551,0.9559,0.9564,0.9773,0.9773,0.9774,0,0,0,0,0,0,0.8805,0.8831,0.9065,0.8969,0.9001,0.9109,0.9163,0.9181,0.9222,0.9334,0.9354,0.9273,0.9442,0.9465,0.9549,0.9564,0.9563,0.9571,0.9772,0.9773,0.9774,0.9711,0,0,0,0,0,0,0.8796,0.8828,0.8852,0.8969,0.9005,0.9133,0.9164,0.9185,0.9236,0.9243,0.9359,0.9378,0.9443,0.9536,0.9558,0.9575,0.9577,0.9771,0.9772,0.9773,0.9712,0.9709,0.9707,0,0,0,0,0,0.8785,0.8827,0.8853,0.8879,0.9037,0.9134,0.9155,0.9228,0.9237,0.9262,0.9333,0.9374,0.9558,0.9544,0.9569,0.9589,0.9771,0.9772,0.9773,0.9713,0.971,0.9707,0,0,0,0,0,0,0.8709,0.8843,0.8874,0.8954,0.9032,0.9149,0.9182,0.9223,0.93,0.9303,0.9392,0.9417,0.9493,0.955,0.9531,0.9653,0.9668,0.9674,0.9613,0.9611,0.9609,0.9594,0.9584,0,0,0,0,0,0.8701,0.8768,0.8882,0.8942,0.898,0.9074,0.9119,0.9169,0.9253,0.9286,0.9364,0.9445,0.9521,0.9569,0.9645,0.972,0.9747,0.9746,0.9744,0.9741,0.9746,0.979,0.9791,0.9778,0.9778,0.9778,0,0,0.8687,0.8768,0.8806,0.8929,0.8995,0.9063,0.9101,0.9171,0.9222,0.9297,0.9381,0.9441,0.9536,0.9616,0.9655,0.9665,0.9755,0.9743,0.974,0.9747,0.9791,0.9792,0.9793,0.9779,0.9779,0.9779,0,0,0.8695,0.8763,0.8821,0.8885,0.8985,0.9047,0.906,0.9171,0.9213,0.9299,0.9356,0.9418,0.9547,0.9613,0.9663,0.9694,0.9735,0.9716,0.9704,0.9745,0.9746,0.9747,0.9759,0.9761,0.972,0.972,0.972,0,0.8664,0.8769,0.8845,0.8912,0.8964,0.9034,0.9093,0.9152,0.9271,0.9306,0.9316,0.9478,0.9548,0.9643,0.965,0.9689,0.9707,0.9704,0.9739,0.9742,0.9744,0.9756,0.976,0.9717,0.9718,0.9718,0.9718,0,0.8726,0.8797,0.8832,0.8944,0.9,0.9062,0.9148,0.9196,0.924,0.9301,0.9387,0.9472,0.9567,0.9593,0.9637,0.9695,0.9698,0.9722,0.9739,0.9741,0.9754,0.9759,0.9713,0.9714,0.9715,0.9716,0,0,0.8694,0.8846,0.8857,0.8909,0.9023,0.9079,0.9144,0.9236,0.9275,0.9354,0.9411,0.9517,0.954,0.9597,0.965,0.9686,0.9705,0.9706,0.971,0.9703,0.9773,0.9755,0.9759,0.9732,0.9733,0.9734,0.9765,0,0.8718,0.8837,0.8907,0.8999,0.9065,0.9131,0.9188,0.9264,0.9322,0.9387,0.9452,0.9526,0.955,0.9585,0.9624,0.9694,0.972,0.9693,0.9786,0.9789,0.9761,0.9765,0.9746,0.9772,0.9771,0.9771,0.9772,0,0.8762,0.8839,0.8936,0.9042,0.9073,0.9122,0.9211,0.9272,0.9359,0.9399,0.9461,0.9514,0.9585,0.9595,0.9694,0.9674,0.9716,0.9756,0.9759,0.9772,0.9781,0.9779,0.9782,0.9786,0.9781,0.978,0.9779,0,0.8729,0.8857,0.8932,0.8974,0.9098,0.9132,0.9185,0.9272,0.9322,0.94,0.9433,0.9518,0.9565,0.9629,0.9703,0.9703,0.9795,0.9811,0.983,0.9829,0.9848,0.9846,0.9859,0.9873,0.9873,0.9873,0.9873,0,0.8749,0.8806,0.8918,0.8964,0.903,0.911,0.9173,0.9232,0.9308,0.9367,0.9429,0.9483,0.9576,0.9641,0.9699,0.9773,0.9793,0.9828,0.9843,0.9823,0.9818,0.9853,0.9853,0.9874,0.9874,0.9874,0.9874,0,0.8724,0.8801,0.8887,0.8998,0.9027,0.907,0.9165,0.9212,0.9273,0.9346,0.9368,0.9464,0.9544,0.9623,0.9731,0.9769,0.9842,0.9862,0.9813,0.9821,0.9836,0.9834,0.9873,0.9882,0.9888,0.9888,0.9888,0,0.8732,0.8778,0.8893,0.8936,0.8988,0.9057,0.9109,0.9188,0.9239,0.934,0.9375,0.946,0.9532,0.9656,0.9735,0.9818,0.984,0.9848,0.9853,0.9832,0.9841,0.9838,0.9843,0.9846,0.9846,0.9845,0.9845,0,0.8739,0.8774,0.8846,0.893,0.8989,0.906,0.9132,0.9164,0.9258,0.9312,0.9394,0.9449,0.9558,0.9641,0.9733,0.9789,0.9832,0.9842,0.9851,0.9832,0.9802,0.9819,0.9807,0.9841,0.9842,0.9842,0.9842,0.9842,0.8731,0.8775,0.8862,0.8939,0.9002,0.9068,0.9117,0.9184,0.9253,0.9348,0.9391,0.9473,0.9559,0.9686,0.974,0.9806,0.9818,0.9831,0.9834,0.9836,0.9832,0.979,0.9823,0.9823,0.9824,0.9824,0.9824,0,0.8742,0.8801,0.8871,0.897,0.903,0.9065,0.9147,0.9195,0.9267,0.9342,0.9411,0.9505,0.9586,0.967,0.9756,0.9792,0.9814,0.9812,0.9811,0.9823,0.9817,0.9801,0.9792,0.9792,0.9792,0.9792,0.9792,0.9792,0.8754,0.8829,0.8875,0.8981,0.9041,0.9121,0.9165,0.9226,0.9287,0.9389,0.9456,0.951,0.9589,0.9681,0.9756,0.9779,0.9808,0.98,0.9828,0.9821,0.9823,0.9825,0.9811,0.9805,0.9805,0.9829,0.9829,0.9829]},{"header":{"parameterUnit":"m.s-1","parameterCategory":1,"la1":30.2991,"la2":30.254,"lo1":-89.0895,"lo2":-89.0444,"dy":0.0017,"dx":0.0017,"nx":28,"ny":28,"refTime":"2025-03-21T09:00:00:Z","depth":0,"parameterNumber":3,"parameterNumberName":"V-component_of_WINDS"},"data":[0,0,0,0,0,0,0,0,0,0,0,0,0,0,0,0,0,0,0,0,0,0,0,0,0,0,0,0,0,0,0,0,0,0,0,0,0,0,0,0,0,0,0,0,0,0,0,0,0,0,0,0,0,0,0,0,0,0,4.2875,4.2874,0,4.2833,4.2832,4.2832,4.2823,4.2824,4.2824,4.2824,4.2774,4.2772,4.2771,0,0,0,0,0,0,0,0,0,0,0,0,0,4.2941,4.294,4.2875,4.2874,4.2874,4.2833,4.2832,4.2832,4.2823,4.2824,4.2824,4.2825,4.2774,4.2772,4.277,0,0,0,0,0,0,0,0,0,0,0,0,0,4.2907,4.2939,4.2875,4.2865,4.2863,4.2833,4.2832,4.2832,4.2823,4.2824,4.2824,4.2825,4.2775,4.2773,4.277,4.2744,0,0,4.2762,4.2761,0,0,0,0,0,0,0,0,4.2909,4.2904,4.2867,4.2865,4.2864,4.2834,4.2837,4.2802,4.2823,4.2838,4.2824,4.2825,4.2793,4.2789,4.278,4.2742,4.274,4.2762,4.2761,4.276,4.2759,0,0,0,0,0,0,0,4.2911,4.2906,4.2858,4.2866,4.2864,4.286,4.2856,4.283,4.2813,4.2837,4.2836,4.2832,4.2792,4.2782,4.2778,4.2739,4.2762,4.276,4.2759,4.2758,4.2678,4.2677,0,0,0,0,0,0,4.2916,4.2908,4.2859,4.2857,4.2888,4.2859,4.2854,4.2843,4.2813,4.2809,4.2831,4.2832,4.2786,4.2781,4.2777,4.2745,4.276,4.2757,4.2756,4.2679,4.2678,4.2677,0,0,0,0,0,0,4.2917,4.2912,4.2861,4.2882,4.2875,4.2857,4.2845,4.2842,4.2832,4.2809,4.2805,4.2825,4.2786,4.278,4.2753,4.2743,4.2756,4.2754,4.2679,4.2678,4.2678,4.2681,0,0,0,0,0,0,4.2919,4.2912,4.2904,4.2882,4.2874,4.284,4.2844,4.2841,4.2829,4.2828,4.2802,4.2798,4.2786,4.2757,4.2751,4.274,4.2752,4.268,4.2679,4.2678,4.2682,4.268,4.2679,0,0,0,0,0,4.2922,4.2905,4.2904,4.2898,4.2864,4.284,4.2835,4.2824,4.2828,4.2818,4.2804,4.2799,4.2745,4.2754,4.2747,4.2735,4.2681,4.2679,4.2678,4.2682,4.268,4.2679,0,0,0,0,0,0,4.2923,4.2902,4.29,4.2876,4.286,4.2838,4.2826,4.2822,4.2803,4.2803,4.2788,4.2782,4.2756,4.2743,4.2753,4.2709,4.2713,4.271,4.2719,4.2717,4.2716,4.2719,4.275,0,0,0,0,0,4.2921,4.2906,4.2887,4.2867,4.286,4.2844,4.2833,4.2827,4.2808,4.2801,4.2784,4.2764,4.2743,4.2729,4.2708,4.268,4.2673,4.2668,4.2667,4.2666,4.2663,4.2647,4.2644,4.2673,4.2673,4.2673,0,0,4.2916,4.2902,4.2893,4.2867,4.2854,4.2836,4.2838,4.2819,4.2805,4.2797,4.2771,4.2758,4.2735,4.2707,4.2694,4.2696,4.2654,4.2664,4.2664,4.2661,4.2645,4.2643,4.264,4.2672,4.2672,4.2672,0,0,4.2897,4.2886,4.2869,4.2856,4.2837,4.2827,4.2823,4.2802,4.2794,4.2769,4.2762,4.2744,4.2708,4.2692,4.2679,4.2655,4.265,4.2649,4.2642,4.2626,4.2624,4.2622,4.2613,4.261,4.2646,4.2646,4.2646,0,4.2892,4.2868,4.2859,4.2841,4.283,4.2824,4.2806,4.2793,4.2767,4.2758,4.2761,4.2716,4.27,4.2668,4.2663,4.2653,4.2646,4.2651,4.2625,4.2623,4.2621,4.2613,4.2609,4.2646,4.2646,4.2646,4.2646,0,4.2862,4.2845,4.2833,4.2812,4.2799,4.278,4.2767,4.2755,4.2749,4.2739,4.2712,4.2693,4.2669,4.2661,4.2654,4.2628,4.263,4.2629,4.2633,4.2619,4.261,4.2607,4.2646,4.2646,4.2646,4.2646,0,0,4.2842,4.2818,4.2814,4.2804,4.2783,4.2769,4.2749,4.2728,4.2718,4.27,4.2682,4.2652,4.2652,4.2638,4.2629,4.2615,4.2598,4.2616,4.2615,4.2613,4.2568,4.2568,4.2565,4.2595,4.2594,4.2593,4.257,0,4.2821,4.279,4.2782,4.2754,4.2738,4.2733,4.2716,4.27,4.269,4.2672,4.266,4.2639,4.264,4.2632,4.2618,4.2603,4.2588,4.2605,4.2576,4.2575,4.2582,4.2561,4.2561,4.254,4.2566,4.2566,4.2565,0,4.2792,4.2777,4.2749,4.2731,4.2724,4.2709,4.2689,4.2673,4.2655,4.2648,4.2633,4.2626,4.2603,4.2609,4.2577,4.2589,4.2576,4.2567,4.2566,4.2563,4.2569,4.2556,4.2533,4.2529,4.256,4.2561,4.2561,0,4.2781,4.2753,4.2732,4.2724,4.2703,4.2693,4.2683,4.2665,4.2653,4.2634,4.2626,4.2604,4.2592,4.2575,4.2561,4.2567,4.2531,4.2535,4.2523,4.2523,4.2515,4.2516,4.2489,4.2508,4.2508,4.2508,4.2508,0,4.2758,4.274,4.2727,4.2715,4.2695,4.2685,4.2665,4.2654,4.2639,4.2622,4.2615,4.2599,4.2583,4.2564,4.2553,4.2529,4.2523,4.2516,4.2513,4.2516,4.2517,4.2508,4.2509,4.2507,4.2507,4.2507,4.2508,0,4.2741,4.2732,4.2709,4.2692,4.2687,4.2673,4.2657,4.2643,4.2633,4.2612,4.2607,4.259,4.2568,4.2553,4.2524,4.2516,4.249,4.2487,4.2497,4.2495,4.2484,4.2485,4.245,4.2445,4.2467,4.2467,4.2467,0,4.2727,4.2714,4.2696,4.2686,4.2677,4.266,4.2649,4.2639,4.2626,4.2605,4.2594,4.2572,4.2554,4.2518,4.2502,4.248,4.2476,4.2465,4.2473,4.2477,4.2476,4.2477,4.2475,4.2464,4.2464,4.2464,4.2464,0,4.2703,4.27,4.2685,4.2668,4.2655,4.2641,4.2626,4.2618,4.2605,4.2591,4.257,4.2556,4.2528,4.2506,4.2482,4.2469,4.2464,4.2462,4.2458,4.2461,4.2467,4.2464,4.2493,4.2462,4.2462,4.2463,4.2463,4.2463,4.2687,4.2676,4.2662,4.2645,4.2634,4.2621,4.2608,4.2597,4.258,4.2558,4.2552,4.253,4.2511,4.248,4.2467,4.2448,4.2448,4.2443,4.2441,4.244,4.244,4.2471,4.2443,4.2443,4.2443,4.2443,4.2443,0,4.2663,4.2654,4.2639,4.2621,4.2607,4.2606,4.259,4.2578,4.256,4.2544,4.2528,4.2503,4.2482,4.2465,4.2442,4.243,4.2427,4.2425,4.2425,4.2422,4.244,4.2446,4.2428,4.2428,4.2428,4.2428,4.2428,4.2428,4.2649,4.263,4.2624,4.2599,4.2589,4.257,4.2561,4.2548,4.2535,4.251,4.2493,4.2483,4.2466,4.2443,4.2422,4.2418,4.2409,4.2408,4.2402,4.2419,4.2421,4.2422,4.2428,4.2406,4.2406,4.2385,4.2385,4.2385]}]]